Regional Weather Roundup
Issued by NWS

Home | Current Version | Previous Version | Graphics & Text | Print | Product List | Glossary On
Versions: 1 2 3 4 5 6 7 8 9 10 11 12 13 14 15 16 17 18 19 20 21 22 23 24 25 26 27
000
ASUS45 KPSR 201510
RWRAZ

ARIZONA HOURLY REGIONAL WEATHER ROUNDUP
NATIONAL WEATHER SERVICE PHOENIX AZ
800 AM MST MON FEB 20 2017

NOTE: FAIR INDICATES FEW OR NO CLOUDS BELOW 12,000 FEET WITH NO
SIGNIFICANT WEATHER AND/OR OBSTRUCTIONS TO VISIBILITY.

AZZ001>003-036-201600-
NORTHWEST ARIZONA

CITY           SKY/WX    TMP DP  RH WIND       PRES   REMARKS
BULLHEAD CITY  CLOUDY    55  48  76 SE5       30.19R
KINGMAN        CLOUDY    45  40  82 CALM      30.19R
$$

AZZ004>008-015-016-018-201600-
NORTH CENTRAL ARIZONA

CITY           SKY/WX    TMP DP  RH WIND       PRES   REMARKS
GRAND CANYON   CLOUDY    35  34  96 SW5       30.22R WCI  31
WILLIAMS       CLOUDY    36  34  93 SW3       30.23R
PRESCOTT       PTCLDY    39  37  92 S6        30.23R WCI  35
FLAGSTAFF      CLOUDY    33  29  85 W3        30.22R
PAYSON         CLOUDY    41  39  93 CALM      30.26R FOG
PAGE           PTCLDY    40  30  67 S3        30.16R
$$

AZZ009>014-017-201600-
NORTHEAST ARIZONA

CITY           SKY/WX    TMP DP  RH WIND       PRES   REMARKS
WINSLOW        SUNNY     33  31  92 E3        30.23R
SAINT JOHNS    CLOUDY    38  32  79 S10       30.23R WCI  31
WINDOW ROCK    CLOUDY    36  30  79 SW5       30.22R WCI  32
SHOW LOW       CLOUDY    34  30  86 SW3       30.24R
$$

AZZ023-201600-
GREATER PHOENIX AREA

CITY           SKY/WX    TMP DP  RH WIND       PRES   REMARKS
PHOENIX        PTCLDY    53  48  83 E6        30.20R
BUCKEYE        CLEAR     48  48 100 CALM      30.22R
GLENDALE       PTCLDY    52  52 100 CALM      30.23R
LUKE AFB       CLEAR     48 N/A N/A NW5       30.21R
DEER VALLEY    CLEAR     51  50  96 CALM      30.21R
SCOTTSDALE     CLEAR     51  50  96 CALM      30.19R
MESA-FALCON    MOSUNNY  N/A N/A N/A NE7       30.18R
MESA-GATEWAY   MOSUNNY   46  45  93 E5        30.22R
CHANDLER       SUNNY     48  48 100 CALM      30.21R
$$

AZZ027-028-201600-
SOUTHWEST MARICOPA COUNTY AND PINAL COUNTY

CITY           SKY/WX    TMP DP  RH WIND       PRES   REMARKS
CASA GRANDE    NOT AVBL
GILA BEND      FAIR      49  47  94 SE6       30.20R
$$

AZZ503-504-507>509-201600-
SOUTHEAST ARIZONA

CITY           SKY/WX    TMP DP  RH WIND       PRES   REMARKS
TUCSON         SUNNY     50  48  93 CALM      30.24R
DAVIS-MONTHAN  SUNNY     49  49 100 CALM      30.23R
NOGALES        PTSUNNY   44  42  93 CALM      30.23R
SIERRA VISTA   CLOUDY    43  40  89 SE3       30.25R
DOUGLAS        CLOUDY    42  41  96 SW5       30.25R
SAFFORD        CLOUDY    47  43  86 SE3       30.21R
$$

AZZ020-021-025-026-031-201600-
SOUTHWEST ARIZONA

CITY           SKY/WX    TMP DP  RH WIND       PRES   REMARKS
YUMA           CLEAR     54  51  90 CALM      30.19R
$$

CAZ031-033-041-043-047-048-061-201600-
SOUTHERN CALIFORNIA

CITY           SKY/WX    TMP DP  RH WIND       PRES   REMARKS
DOWNTOWN L.A.  CLOUDY    54  51  90 VRB6      30.22R FOG
L.A. AIRPORT   CLOUDY    53  53 100 E9        30.22R FOG
SAN DIEGO      CLOUDY    57  45  64 CALM      30.26R
BURBANK        LGT RAIN  51  49  92 SE10      30.19S FOG
ONTARIO        DRIZZLE   49  49 100 E3        30.22R FOG
RIVERSIDE      CLOUDY    51  50  96 CALM      30.23R
PALM SPRINGS   CLEAR     54  51  90 NW3       30.19R
EL CENTRO NAS  PTCLDY    48  43  82 CALM      30.20R
IMPERIAL       PTCLDY    52  48  86 CALM      30.17R
BLYTHE         CLEAR     52  50  93 S3        30.18R
NEEDLES        CLOUDY    57  50  77 W6        30.18R
$$

NVZ020-UTZ003-201600-
SOUTHERN NEVADA-UTAH

CITY           SKY/WX    TMP DP  RH WIND       PRES   REMARKS
LAS VEGAS      CLOUDY    56  43  61 S8        30.10R
SALT LAKE CITY MOCLDY    47  34  60 S16G24    30.00S
$$

NMZ009-TXZ055-201600-
NEW MEXICO-WEST TEXAS

CITY           SKY/WX    TMP DP  RH WIND       PRES   REMARKS
ALBUQUERQUE    MOSUNNY   45  33  63 N5        30.19R
EL PASO        MOSUNNY   49  34  56 W29G36    30.14R
$$


........................KEY........................
SKY/WX - SKY CONDITION/WEATHER
TMP    - TEMPERATURE IN FAHRENHEIT
DP     - DEW POINT IN FAHRENHEIT
RH     - RELATIVE HUMIDITY IN PERCENT
WIND   - DIRECTION AND SPEED IN MILES PER HOUR (MPH)
VRB    - VARIABLE WIND DIRECTION
PRES   - MEAN SEA LEVEL PRESSURE IN INCHES OF MERCURY
         F - FALLING PRESSURE   R - RISING PRESSURE
         S - STEADY PRESSURE
VSB    - VISIBILITY IN MILES
HX     - HEAT INDEX IN FAHRENHEIT
WCI    - WIND CHILL INDEX IN FAHRENHEIT
TC     - TEMPERATURE IN CELSIUS WHICH IS ALSO KNOWN AS
         TEMPERATURE IN CENTIGRADE
AFB    - AIR FORCE BASE
         LUKE AFB IS LUKE AIR FORCE BASE
         DAVIS-MONTHAN IS DAVIS-MONTHAN AIR FORCE BASE
NAS    - NAVAL AIR STATION
         EL CENTRO NAS IS EL CENTRO NAVAL AIR STATION
N/A    - NOT AVAILABLE





USA.gov is the U.S. government's official web portal to all federal, state and local government web resources and services.